Location: Middlebury
(44.0153°N, 73.1678°W)
Time: 20:50:57
(UTC-04:00)

DIWATA 2B (PO-101) - Pass Details

Date: 19 June 2024
Orbit: 575 x 586 km, 98.1° (Epoch: 23 July)

Event Time Altitude Azimuth Distance (km) Brightness Sun altitude
Rises 04:27:15 0° 169° (S) 2,773 ? -6.8°
Reaches altitude 10° 04:29:23 10° 171° (S) 1,879 ? -6.5°
Maximum altitude 04:33:27 76° 257° (WSW) 599 ? -6.0°
Drops below altitude 10° 04:37:34 10° 344° (NNW) 1,897 ? -5.4°
Sets 04:39:44 0° 346° (NNW) 2,802 ? -5.1°
